Find Starlink 35640

NORAD ID: 66536 Int'l Des: 2025-265 Owner: SPXS Country: US Constellation: starlink operational
LEOCIRCULAR

現在のビュー

3D地球を読み込み中...

About Starlink 35640

Starlink 35640 (NORAD 66536) is a starlink constellation satellite (v2 mini) launched Nov 19, 2025 by SPXS of US. It operates in LEO, CIRCULAR orbit with a mass of 575.00 kg.

次回通過

Passes for default location (London). Set your location on the main map for personalized predictions.

高度履歴

Loading altitude history...

軌道要素

1 66536U 25265W 26263.35603314 .00017127 00000-0 63028-3 0 9990
2 66536 42.9995 258.6871 0001284 275.4371 84.6334 15.27589805 46881
Epoch: Sep 20, 2026 • Age: 11 hours

現在のステータス

高度 494.5 km
遠地点 / 近地点 N/A
速度 7.62 km/s
衛星直下点 -40.87°S, 99.01°W
打ち上げ日 Nov 19, 2025
運用期間 0.8 years
タイプ internet

技術仕様

分類 Payload
質量 575.00 kg
乾燥質量 530.00 kg
長さ 0.30 m
スパン 29.00 m
形状 ? Box + pan
製造者 SPXS
バスタイプ Starlink V2MO
フェーズステータス In Orbit
所有者/国 SPXS/US

Most Searched